Location: Most
(50.5133°N, 13.6207°E)
Time: 19:18:18
(UTC+01:00)

Oscar 11 - Visible Passes

Search period start: 30 November 2021 00:00
Search period end: 10 December 2021 00:00
Orbit: 614 x 623 km, 97.6° (Epoch: 29 November)

Date Brightness Start Highest point End Pass type
(mag) Time Alt. Az. Time Alt. Az. Time Alt. Az.
30 Nov 9.2 04:49:21 10° NE 04:53:04 27° E 04:56:45 10° SSE visible
30 Nov 7.5 06:25:14 10° N 06:29:17 38° WNW 06:33:18 10° SW visible
30 Nov 9.3 17:24:35 10° SSW 17:28:22 28° W 17:32:10 10° NNW visible
01 Dec 8.5 05:05:57 10° NNE 05:10:02 38° E 05:14:05 10° SSE visible
01 Dec 7.9 06:42:19 10° N 06:46:02 28° WNW 06:49:43 10° WSW visible
01 Dec 9.9 17:42:08 10° SW 17:45:22 20° W 17:48:37 10° NW visible
02 Dec 7.7 05:22:40 10° NNE 05:26:58 55° E 05:31:13 10° S visible
02 Dec 8.3 06:59:31 10° NNW 07:02:44 20° WNW 07:05:55 10° WSW visible
02 Dec 10.2 18:00:04 10° WSW 18:02:25 14° W 18:04:47 10° NW visible
03 Dec 10.5 04:06:23 10° ENE 04:07:00 10° E 04:07:36 10° E visible
03 Dec 7.1 05:39:29 10° NNE 05:43:51 81° ESE 05:48:11 10° SSW visible
03 Dec 7.3 16:38:16 10° S 16:42:37 76° WSW 16:47:00 10° NNW visible
04 Dec 10.1 04:21:33 10° NE 04:24:05 15° E 04:26:36 10° ESE visible
04 Dec 6.9 05:56:21 10° N 06:00:42 70° WNW 06:05:00 10° SSW visible
04 Dec 8.1 16:55:16 10° S 16:59:30 52° W 17:03:48 10° NNW visible
05 Dec 9.6 04:37:47 10° NE 04:41:08 21° E 04:44:27 10° SE visible
05 Dec 7.2 06:13:18 10° N 06:17:30 48° WNW 06:21:40 10° SW visible
05 Dec 8.8 17:12:26 10° SSW 17:16:27 36° W 17:20:30 10° NNW visible
06 Dec 9.0 04:54:16 10° NNE 04:58:08 30° E 05:01:56 10° SSE visible
06 Dec 7.7 06:30:20 10° N 06:34:16 34° WNW 06:38:10 10° SW visible
06 Dec 9.5 17:29:48 10° SSW 17:33:25 25° W 17:37:04 10° NW visible
07 Dec 8.2 05:10:55 10° NNE 05:15:05 43° E 05:19:12 10° S visible
07 Dec 8.1 06:47:26 10° N 06:50:59 25° WNW 06:54:31 10° WSW visible
07 Dec 10.1 17:47:27 10° SW 17:50:26 18° W 17:53:27 10° NW visible
08 Dec 7.5 05:27:39 10° NNE 05:31:59 63° E 05:36:16 10° S visible
08 Dec 8.4 07:04:41 10° NNW 07:07:41 18° WNW 07:10:39 10° WSW visible
08 Dec 10.3 18:05:37 10° WSW 18:07:30 13° W 18:09:24 10° WNW visible
09 Dec 10.3 04:10:30 10° ENE 04:12:05 12° E 04:13:40 10° ESE visible
09 Dec 7.0 05:44:29 10° NNE 05:48:52 89° WNW 05:53:11 10° SSW visible
09 Dec 7.6 16:43:18 10° S 16:47:38 67° WSW 16:52:00 10° NNW visible
